TimeCDT,TemperatureF,Dew PointF,Humidity,Sea Level PressureIn,VisibilityMPH,Wind Direction,Wind SpeedMPH,Gust SpeedMPH,PrecipitationIn,Events,Conditions,WindDirDegrees,DateUTC
12:52 AM,78.1,75.0,90,30.02,10.0,SE,9.2,-,N/A,,Clear,140,2012-10-11 05:52:00
1:52 AM,77.0,73.9,90,30.02,10.0,SE,5.8,-,N/A,,Clear,140,2012-10-11 06:52:00
2:52 AM,75.0,73.0,94,30.01,10.0,ESE,3.5,-,N/A,,Clear,120,2012-10-11 07:52:00
3:52 AM,73.9,73.0,97,30.01,10.0,ESE,4.6,-,N/A,,Clear,120,2012-10-11 08:52:00
4:52 AM,73.0,71.1,93,30.00,10.0,ESE,3.5,-,N/A,,Clear,110,2012-10-11 09:52:00
5:52 AM,73.0,72.0,96,30.01,10.0,ESE,5.8,-,N/A,,Clear,110,2012-10-11 10:52:00
6:52 AM,73.0,72.0,96,30.02,10.0,ESE,4.6,-,N/A,,Clear,120,2012-10-11 11:52:00
7:52 AM,73.9,73.0,97,30.04,10.0,SE,5.8,-,N/A,,Clear,130,2012-10-11 12:52:00
8:52 AM,80.6,75.2,84,30.05,10.0,SE,10.4,-,N/A,,Clear,130,2012-10-11 13:52:00
9:36 AM,84.2,73.4,70,30.06,10.0,SE,17.3,24.2,N/A,,Clear,140,2012-10-11 14:36:00
9:52 AM,86.0,73.0,65,30.07,10.0,SE,18.4,24.2,N/A,,Scattered Clouds,140,2012-10-11 14:52:00
10:52 AM,90.0,71.1,54,30.08,10.0,SE,19.6,23.0,N/A,,Scattered Clouds,140,2012-10-11 15:52:00
11:52 AM,90.0,72.0,55,30.07,10.0,SE,16.1,-,N/A,,Scattered Clouds,130,2012-10-11 16:52:00
12:52 PM,91.9,70.0,48,30.06,10.0,SE,18.4,26.5,N/A,,Partly Cloudy,140,2012-10-11 17:52:00
1:52 PM,91.0,70.0,50,30.03,10.0,SE,20.7,27.6,N/A,,Scattered Clouds,140,2012-10-11 18:52:00
2:52 PM,91.4,71.6,52,30.01,10.0,SE,20.7,27.6,N/A,,Scattered Clouds,130,2012-10-11 19:52:00
3:52 PM,91.9,70.0,48,30.01,10.0,ESE,23.0,27.6,N/A,,Scattered Clouds,120,2012-10-11 20:52:00
4:52 PM,90.0,71.1,54,30.01,10.0,SE,20.7,26.5,N/A,,Partly Cloudy,130,2012-10-11 21:52:00
5:52 PM,87.8,71.6,58,30.00,10.0,ESE,19.6,24.2,N/A,,Partly Cloudy,120,2012-10-11 22:52:00
6:52 PM,82.9,72.0,69,30.01,10.0,ESE,17.3,-,N/A,,Clear,120,2012-10-11 23:52:00
7:52 PM,80.6,73.4,79,30.03,10.0,ESE,11.5,-,N/A,,Clear,120,2012-10-12 00:52:00
8:52 PM,80.1,73.0,79,30.04,10.0,ESE,10.4,-,N/A,,Clear,120,2012-10-12 01:52:00
9:52 PM,78.8,73.4,83,30.06,10.0,ESE,9.2,-,N/A,,Clear,120,2012-10-12 02:52:00
10:52 PM,78.8,73.4,83,30.07,10.0,ESE,8.1,-,N/A,,Clear,120,2012-10-12 03:52:00
11:52 PM,77.0,73.4,89,30.07,10.0,ESE,8.1,-,N/A,,Clear,120,2012-10-12 04:52:00